Regional Weather Roundup
Issued by NWS New Orleans/Baton Rouge, LA

Home | Current Version | Previous Version | Text Only | Print | Product List | Glossary On
Versions: 1 2 3 4 5 6 7 8 9 10 11 12 13 14 15 16 17 18 19 20 21 22 23 24 25 26 27 28 29 30 31 32 33 34 35 36 37 38 39 40 41 42 43 44 45 46 47 48 49 50
000
ASUS44 KLIX 122112
RWRLIX
NEW ORLEANS REGIONAL WEATHER ROUNDUP
NATIONAL WEATHER SERVICE NEW ORLEANS LA
300 PM CST TUE DEC 12 2017

NOTE: "FAIR" INDICATES FEW OR NO CLOUDS BELOW 12,000 FEET WITH NO
      SIGNIFICANT WEATHER AND/OR OBSTRUCTIONS TO VISIBILITY.
      SKY/WX - SKY CONDITION AND SIGNIFICANT WEATHER.
      TMP - AIR TEMPERATURE.     DP    - DEWPOINT TEMPERATURE.
      RH  - RELATIVE HUMIDITY.   PRES  - PRESSURE.
      HI  - HEAT INDEX.          WCI   - WIND CHILL INDEX.

*  THESE STATIONS ARE NOT NWS OR FAA STATIONS AND ARE NOT UNDER
   NWS QUALITY CONTROL.

LAZ038-040-048-061>063-065>067-069-122200-
SOUTHEAST LOUISIANA

CITY           SKY/WX    TMP DP  RH WIND       PRES   REMARKS
N.O. INTL ARPT MOSUNNY   62  36  37 NW13      30.12S
N.O. LAKEFRONT SUNNY     58  47  66 W10       30.13R
N.O. DOWNTOWN*   N/A     60  35  39 NW9       30.13R
RESERVE*         N/A     64  32  30 NW12G17   30.13S
SLIDELL        SUNNY     62  34  35 NW9G18    30.10S
BATON ROUGE    SUNNY     61  31  32 NW10      30.14F
BOOTHVILLE     SUNNY     61  37  41 NW13      30.10F
BELLE CHASSE   SUNNY     61  37  41 NW10G18   30.12R
BOGALUSA*      NOT AVBL
GALLIANO*      CLEAR     63  32  31 N10G17    30.11S
NEW ROADS*       N/A     59  34  39 NW10G16   30.16F
GONZALES*        N/A     62  33  34 N10       30.13S
HAMMOND*       SUNNY     61  34  36 N12       30.13S
HOUMA*         SUNNY     63  34  34 N15       30.12
PORT FOURCHON* CLEAR     61  37  41 N9        30.13R

$$

MSZ070-080>082-122200-
SOUTHERN MISSISSIPPI

CITY           SKY/WX    TMP DP  RH WIND       PRES   REMARKS
MCCOMB         SUNNY     60  31  33 NW14      30.13S
GULFPORT       SUNNY     62  34  35 NW15      30.07F
BILOXI         SUNNY     61  35  38 N16       30.06F
PASCAGOULA     SUNNY     62  31  31 NW10G17   30.06F
STENNIS ARPT*  SUNNY     61  36  39 N9        30.09S

$$

COASTAL OBSERVATIONS
LAKE AND NEARSHORE STATIONS

STATION/POSITION TIME  TEMP    WIND        PRES    WAVE
                       AIR SEA DIR/SP/G            HT/PER
                 (UTC) (F)     (DEG/KT/KT) (MB)    (FT/S)
PASCAGOULA       2048   62     360/  8/ 14 1017.5
WAVELAND YACHT   2048   59 55  350/ 14/ 16 1018.4
GRAND ISLE       2048   59 58  340/ 13/ 17 1019.5
SOUTHWEST PASS   2048   58 58   10/ 13/ 15 1019.6
NEW CANAL        2048   58 55  280/  4/  7 1019.9
SHELL BEACH      2048   57 56  300/ 14/ 15 1019.5

OFFSHORE STATIONS

STATION/POSITION TIME  TEMP    WIND        PRES    WAVE
                       AIR SEA DIR/SP/G            HT/PER
                 (UTC) (F)     (DEG/KT/KT) (MB)    (FT/S)
64 S DAUPHIN ISL 2050   60 73  330/ 17/ 23 1018.1    4/ 6

$$




USA.gov is the U.S. government's official web portal to all federal, state and local government web resources and services.